DLH86R EDDF-LIRF

Flight info

Callsign DLH86R
Flight time N/A
Altitude 23000
Route CINDY6F/25C CINDY Z74 LAMPU/N0461F350 DCT NOMBO Y161 RIDAR DCT KONIN DCT BERAS DCT LIKDA DCT BAKOR DCT VESAL DCT VIC DCT KOPER DCT SUKOM DCT GAVRA DCT RITEB
Aircraft A320/M-SDE3FGHIRWY/LB1

Departure

Time 2026-05-07 10:01
Airport Frankfurt Main Airport (EDDF)

Arrival

Time N/A
Airport Rome–Fiumicino Leonardo da Vinci International Airport (LIRF)
Time Latitude Longitude Altitude Speed Heading
2026-05-07 09:36 50.04720 8.58103 369 ft 0 kts 160°
2026-05-07 09:42 50.04721 8.58103 366 ft 0 kts 160°
2026-05-07 09:48 50.04729 8.58098 365 ft 4 kts 160°
2026-05-07 09:48 50.04755 8.58083 367 ft 4 kts 160°
2026-05-07 09:48 50.04775 8.58071 369 ft 4 kts 150°
2026-05-07 09:49 50.04793 8.58046 365 ft 4 kts 105°
2026-05-07 09:49 50.04791 8.58012 365 ft 4 kts 70°
2026-05-07 09:49 50.04787 8.57998 368 ft 0 kts 70°
2026-05-07 09:54 50.04788 8.57999 368 ft 1 kts 70°
2026-05-07 09:54 50.04813 8.58100 366 ft 17 kts 69°
2026-05-07 09:55 50.04854 8.58272 367 ft 16 kts 70°
2026-05-07 09:55 50.04891 8.58425 366 ft 14 kts 69°
2026-05-07 09:55 50.04924 8.58559 366 ft 12 kts 70°
2026-05-07 09:55 50.04909 8.58667 366 ft 10 kts 137°
2026-05-07 09:56 50.04849 8.58706 366 ft 9 kts 159°
2026-05-07 09:56 50.04828 8.58719 368 ft 0 kts 159°
2026-05-07 09:56 50.04811 8.58729 364 ft 7 kts 159°
2026-05-07 09:56 50.04758 8.58759 367 ft 8 kts 162°
2026-05-07 09:57 50.04675 8.58764 365 ft 11 kts 187°
2026-05-07 09:57 50.04644 8.58757 365 ft 0 kts 188°
2026-05-07 09:57 50.04642 8.58757 368 ft 0 kts 188°
2026-05-07 09:57 50.04641 8.58756 368 ft 2 kts 188°
2026-05-07 09:58 50.04582 8.58714 367 ft 10 kts 214°
2026-05-07 09:58 50.04532 8.58662 370 ft 10 kts 214°
2026-05-07 09:58 50.04484 8.58581 370 ft 0 kts 247°
2026-05-07 10:00 50.04482 8.58571 369 ft 14 kts 247°
2026-05-07 10:00 50.04352 8.58026 367 ft 89 kts 250°
2026-05-07 10:01 50.04067 8.56827 368 ft 144 kts 250°
2026-05-07 10:01 50.03678 8.55183 647 ft 166 kts 251°
2026-05-07 10:01 50.03279 8.53495 1395 ft 166 kts 252°
2026-05-07 10:01 50.02862 8.51780 1946 ft 178 kts 249°
2026-05-07 10:02 50.01988 8.50272 2268 ft 205 kts 210°
2026-05-07 10:02 50.00589 8.49463 2698 ft 220 kts 200°
2026-05-07 10:02 49.99066 8.49100 3335 ft 228 kts 171°
2026-05-07 10:02 49.97658 8.50175 4108 ft 230 kts 133°
2026-05-07 10:03 49.96776 8.52237 4922 ft 230 kts 118°
2026-05-07 10:03 49.95978 8.54439 5558 ft 241 kts 118°
2026-05-07 10:03 49.95137 8.56791 6080 ft 255 kts 117°
2026-05-07 10:03 49.94339 8.59312 6656 ft 269 kts 107°
2026-05-07 10:04 49.93992 8.62227 7252 ft 280 kts 91°
2026-05-07 10:04 49.93881 8.65278 8065 ft 286 kts 95°
2026-05-07 10:04 49.93365 8.68279 8901 ft 292 kts 114°
2026-05-07 10:04 49.92256 8.70944 9743 ft 298 kts 133°
2026-05-07 10:05 49.90660 8.73018 10381 ft 308 kts 145°
2026-05-07 10:05 49.88967 8.75254 10636 ft 332 kts 134°
2026-05-07 10:05 49.87478 8.78136 10835 ft 355 kts 123°
2026-05-07 10:05 49.86221 8.81560 11097 ft 373 kts 118°
2026-05-07 10:06 49.84962 8.85123 11662 ft 381 kts 119°
2026-05-07 10:06 49.83664 8.88734 12344 ft 385 kts 119°
2026-05-07 10:06 49.82348 8.92362 13057 ft 388 kts 119°
2026-05-07 10:06 49.81013 8.96022 13769 ft 391 kts 119°
2026-05-07 10:07 49.79666 8.99707 14390 ft 394 kts 119°
2026-05-07 10:07 49.78309 9.03411 15003 ft 398 kts 119°
2026-05-07 10:07 49.76958 9.07162 15621 ft 401 kts 116°
2026-05-07 10:07 49.75911 9.11181 16166 ft 405 kts 107°
2026-05-07 10:08 49.75128 9.15381 16709 ft 409 kts 109°
2026-05-07 10:08 49.73937 9.19385 17269 ft 412 kts 120°
2026-05-07 10:08 49.72286 9.23019 17849 ft 414 kts 131°
2026-05-07 10:08 49.70394 9.26318 18360 ft 417 kts 132°
2026-05-07 10:09 49.68469 9.29691 18841 ft 420 kts 132°
2026-05-07 10:09 49.66537 9.33105 19294 ft 423 kts 131°